Location: Delia
(51.6321°N, 112.3740°W)
Time: 20:36:42
(UTC+00:00)

Envisat - Pass Details

Date: 11 December 2021
Orbit: 764 x 766 km, 98.2° (Epoch: 26 January)

Event Time Altitude Azimuth Distance (km) Brightness Sun altitude
Rises 00:48:01 0° 208° (SSW) 3,223 7.0 -12.7°
Reaches altitude 10° 00:50:56 10° 225° (SW) 2,302 6.6 -13.2°
Maximum altitude 00:54:35 20° 271° (W) 1,740 5.8 -13.7°
Drops below altitude 10° 00:58:14 10° 317° (NW) 2,315 5.8 -14.2°
Sets 01:01:12 0° 335° (NNW) 3,247 6.3 -14.7°
